[[{"header":{"parameterUnit":"m.s-1","parameterCategory":1,"la1":30.2992,"la2":30.254,"lo1":-89.0895,"lo2":-89.0443,"dy":0.0025,"dx":0.0025,"nx":19,"ny":19,"refTime":"2026-04-26T21:00:00:Z","depth":0,"parameterNumber":2,"parameterNumberName":"U-component_of_WINDS"},"data":[0,0,0,-1.1888,-1.1889,-1.1941,-1.1941,-1.2003,-1.2003,0,0,0,0,0,0,0,0,0,0,0,-1.1869,-1.187,-1.1888,-1.1889,-1.1941,-1.1941,-1.2003,-1.2003,0,0,0,0,0,0,0,0,0,0,0,-1.1869,-1.1869,-1.187,-1.1889,-1.1941,-1.1941,-1.2002,-1.1965,0,0,0,0,0,0,0,0,0,0,-1.1916,-1.1895,-1.1869,-1.187,-1.189,-1.1941,-1.1941,-1.1964,-1.1968,-1.1977,0,-1.1984,0,-1.1994,-1.2007,-1.2007,0,0,0,-1.1892,-1.1892,-1.1909,-1.187,-1.189,-1.194,-1.1918,-1.1966,-1.197,-1.1983,-1.1985,-1.1987,-1.1995,-1.2007,-1.2008,-1.2051,-1.2051,0,0,-1.1889,-1.1877,-1.1905,-1.1911,-1.1902,-1.1917,-1.192,-1.1969,-1.1971,-1.1985,-1.1989,-1.1996,-1.2008,-1.2008,-1.2051,-1.2051,0,0,0,-1.1879,-1.1875,-1.1891,-1.1909,-1.1918,-1.1918,-1.1922,-1.1969,-1.1975,-1.1989,-1.1997,-1.2008,-1.2009,-1.2051,-1.2051,-1.2041,0,0,0,-1.1878,-1.1869,-1.1889,-1.1882,-1.1917,-1.1944,-1.192,-1.1971,-1.1977,-1.1997,-1.2008,-1.2009,-1.205,-1.2051,-1.2041,-1.2039,0,0,0,-1.1867,-1.1868,-1.1874,-1.1881,-1.1903,-1.1943,-1.1952,-1.1973,-1.1982,-1.2007,-1.2009,-1.205,-1.2051,-1.2041,-1.2039,-1.2046,0,0,0,-1.1853,-1.1865,-1.1873,-1.189,-1.1902,-1.1937,-1.1952,-1.1979,-1.1999,-1.2008,-1.205,-1.2051,-1.2041,-1.2039,-1.2046,-1.205,-1.205,0,0,-1.1861,-1.1866,-1.1877,-1.1886,-1.1915,-1.193,-1.1958,-1.199,-1.2004,-1.2035,-1.2036,-1.2041,-1.2039,-1.2046,-1.2056,-1.2057,0,0,0,-1.1875,-1.1883,-1.1893,-1.1912,-1.1935,-1.1955,-1.1983,-1.1995,-1.2022,-1.2017,-1.2046,-1.2045,-1.205,-1.2052,-1.2053,-1.2057,-1.2051,-1.2051,-1.2051,-1.1869,-1.1886,-1.1906,-1.1929,-1.1947,-1.1976,-1.1992,-1.2013,-1.2025,-1.2032,-1.2041,-1.2045,-1.2047,-1.2048,-1.2052,-1.2045,-1.2045,-1.2045,-1.2045,-1.1884,-1.1897,-1.1913,-1.1937,-1.1956,-1.1977,-1.2005,-1.2014,-1.2037,-1.204,-1.2045,-1.2047,-1.2047,-1.2052,-1.2044,-1.2044,-1.2044,-1.2044,-1.2044,-1.1882,-1.1891,-1.1904,-1.1933,-1.1953,-1.1977,-1.1998,-1.2014,-1.203,-1.2035,-1.2046,-1.2047,-1.2049,-1.2039,-1.2039,-1.2039,-1.2039,-1.2039,-1.2039,-1.1874,-1.1889,-1.1905,-1.193,-1.1945,-1.1965,-1.1994,-1.2009,-1.203,-1.204,-1.204,-1.2052,-1.2044,-1.2041,-1.204,-1.204,-1.204,-1.204,-1.204,-1.1882,-1.1883,-1.1906,-1.192,-1.1952,-1.1971,-1.1991,-1.202,-1.2035,-1.2045,-1.2056,-1.2047,-1.2053,-1.2053,-1.2051,-1.2052,-1.2052,-1.2052,-1.2052,-1.188,-1.1884,-1.1912,-1.1933,-1.1956,-1.1977,-1.2003,-1.2027,-1.2051,-1.2061,-1.2064,-1.2062,-1.2062,-1.2068,-1.2068,-1.2066,-1.2071,-1.2071,-1.2071,-1.1886,-1.1893,-1.1912,-1.1934,-1.1961,-1.1983,-1.2009,-1.2034,-1.2062,-1.2072,-1.207,-1.2069,-1.2067,-1.2066,-1.2076,-1.2075,-1.2072,0,0]},{"header":{"parameterUnit":"m.s-1","parameterCategory":1,"la1":30.2992,"la2":30.254,"lo1":-89.0895,"lo2":-89.0443,"dy":0.0025,"dx":0.0025,"nx":19,"ny":19,"refTime":"2026-04-26T21:00:00:Z","depth":0,"parameterNumber":3,"parameterNumberName":"V-component_of_WINDS"},"data":[0,0,0,4.5204,4.5206,4.529,4.529,4.5404,4.5406,0,0,0,0,0,0,0,0,0,0,0,4.5186,4.5187,4.5204,4.5206,4.529,4.529,4.5404,4.5406,0,0,0,0,0,0,0,0,0,0,0,4.5185,4.5187,4.5188,4.5207,4.529,4.529,4.5404,4.5338,0,0,0,0,0,0,0,0,0,0,4.5255,4.5245,4.5186,4.5188,4.5207,4.529,4.529,4.5334,4.5342,4.537,0,4.5399,0,4.5405,4.5414,4.5414,0,0,0,4.5201,4.5239,4.5256,4.5188,4.5208,4.529,4.5251,4.5338,4.5347,4.538,4.5401,4.5405,4.5406,4.5415,4.5415,4.5604,4.5605,0,0,4.5196,4.5204,4.525,4.5262,4.5252,4.5248,4.5253,4.5343,4.5366,4.5401,4.5407,4.5408,4.5415,4.5416,4.5603,4.5604,0,0,0,4.5187,4.5201,4.5215,4.5257,4.5272,4.525,4.5257,4.5361,4.5366,4.5409,4.541,4.5416,4.5418,4.5602,4.5603,4.5669,0,0,0,4.5183,4.5195,4.5214,4.5219,4.5271,4.5318,4.5273,4.5359,4.5369,4.5409,4.5416,4.5419,4.56,4.5602,4.5664,4.5698,0,0,0,4.5178,4.5195,4.5209,4.522,4.5256,4.5317,4.5326,4.5361,4.537,4.5414,4.5419,4.5599,4.5602,4.566,4.5691,4.5751,0,0,0,4.5174,4.5265,4.5211,4.5312,4.5256,4.5357,4.5325,4.54,4.5445,4.5417,4.56,4.5603,4.5659,4.5687,4.5747,4.5803,4.5827,0,0,4.5293,4.5279,4.5339,4.5292,4.5406,4.5344,4.5466,4.5499,4.5494,4.5567,4.5572,4.5666,4.5691,4.575,4.5958,4.5978,0,0,0,4.5379,4.5422,4.545,4.5495,4.5524,4.5551,4.5565,4.5577,4.5639,4.5534,4.5703,4.5717,4.5752,4.5778,4.5794,4.5823,4.5616,4.5615,4.5615,4.5558,4.555,4.5647,4.5649,4.5693,4.5707,4.5741,4.5759,4.5736,4.5776,4.5798,4.5925,4.5957,4.5969,4.5999,4.5826,4.5826,4.5826,4.5827,4.5732,4.5791,4.576,4.5844,4.5833,4.5902,4.5919,4.59,4.5962,4.5908,4.5938,4.588,4.599,4.6016,4.5831,4.5831,4.583,4.5829,4.5829,4.5849,4.5876,4.5891,4.5955,4.6006,4.6003,4.6065,4.6052,4.604,4.607,4.6091,4.609,4.6088,4.6081,4.6082,4.6082,4.6082,4.6083,4.6083,4.5965,4.5979,4.6034,4.6073,4.61,4.6135,4.615,4.6176,4.6201,4.6187,4.6187,4.616,4.6003,4.5964,4.609,4.6089,4.6088,4.6087,4.6087,4.6145,4.6103,4.6187,4.6215,4.626,4.631,4.6294,4.6348,4.6367,4.6398,4.6365,4.6251,4.6235,4.6222,4.619,4.6367,4.6367,4.6367,4.6367,4.6244,4.6236,4.632,4.6365,4.6408,4.6402,4.6496,4.6508,4.6513,4.6525,4.6497,4.6453,4.644,4.6432,4.6415,4.6384,4.6607,4.6607,4.6607,4.6355,4.635,4.6434,4.6441,4.6475,4.6503,4.6592,4.6643,4.664,4.6616,4.6533,4.6523,4.6452,4.6429,4.6404,4.6377,4.6321,0,0]}]]